Regional Weather Roundup
Issued by NWS Little Rock, AR

Home | Current Version | Previous Version | Graphics & Text | Print | Product List | Glossary On
Versions: 1 2 3 4 5 6 7 8 9 10 11 12 13 14 15 16 17 18 19 20 21 22 23 24 25 26 27 28 29 30 31 32 33 34 35 36 37 38 39 40 41 42 43 44 45 46 47 48 49 50
000
ASUS44 KLZK 270905
RWRLZK

WEATHER ROUNDUP FOR ARKANSAS
NATIONAL WEATHER SERVICE LITTLE ROCK AR
400 AM CDT WED MAY 27 2015

NOTE: "FAIR" INDICATES FEW OR NO CLOUDS BELOW 12,000 FEET WITH NO
SIGNIFICANT WEATHER AND/OR OBSTRUCTIONS TO VISIBILITY.

ARZ001-003-010-029-271000-
NORTHWEST ARKANSAS

CITY           SKY/WX    TMP DP  RH WIND       PRES   REMARKS
FAYETTEVILLE   LGT RAIN  65  59  81 SE9       30.03R
FORT SMITH     LGT RAIN  67  62  84 E3        30.03R
HARRISON       CLOUDY    69  66  90 S7        30.01F
BENTONVILLE    CLOUDY   N/A N/A N/A S3        30.03R
ROGERS         CLOUDY    68  66  93 S6        30.04F
SILOAM SPGS    CLOUDY    66  55  68 SW7       30.05R
HIGHFILL       CLOUDY    68  67  96 CALM      30.03R
$$

ARZ004-005-016-271000-
NORTH CENTRAL ARKANSAS

CITY           SKY/WX    TMP DP  RH WIND       PRES   REMARKS
BATESVILLE     CLOUDY    70  64  83 SE3       30.02F
FLIPPIN        CLOUDY    66  64  94 W3        30.00R
MTN HOME       CLOUDY    66  65  96 S5        30.01F
$$

ARZ040-041-271000-
WEST CENTRAL ARKANSAS

CITY           SKY/WX    TMP DP  RH WIND       PRES   REMARKS
MENA           CLOUDY    73  68  83 CALM      30.04R
MOUNT IDA      CLOUDY    73  67  81 CALM      30.01F
$$

ARZ009-017-025-026-028-271000-
NORTHEAST ARKANSAS

CITY           SKY/WX    TMP DP  RH WIND       PRES   REMARKS
CORNING        PTSUNNY   66  66 100 CALM      30.04F
JONESBORO      PTCLDY    64  64 100 CALM      30.03F
NEWPORT        MOCLDY    67  67 100 S5        30.03F
WALNUT RIDGE   PTCLDY    66  63  88 SW3       30.03F
BLYTHEVILLE    PTCLDY    67  66  97 S5        30.05S
$$

ARZ022-023-033-042-044-271000-
CENTRAL ARKANSAS

CITY           SKY/WX    TMP DP  RH WIND       PRES   REMARKS
LITTLE ROCK    CLOUDY    69  62  78 SW5       30.03F
N LITTLE ROCK    N/A     70  67  92 S6        30.03F
JACKSONVILLE   CLOUDY    70  65  83 S5        30.02F
SEARCY         MOCLDY    65  65 100 S5        30.05F
HOT SPRINGS    CLOUDY    73  68  84 S5        30.04S
RUSSELLVILLE   CLOUDY    68  67  96 CALM      30.02S
CLINTON        FAIR      64  64 100 CALM      30.04S FOG
$$

ARZ036-271000-
EAST ARKANSAS

CITY           SKY/WX    TMP DP  RH WIND       PRES   REMARKS
WEST MEMPHIS   PTCLDY    69  69 100 S9        30.04F
$$

ARZ050-053-066-070-073-271000-
SOUTHWEST ARKANSAS

CITY           SKY/WX    TMP DP  RH WIND       PRES   REMARKS
ARKADELPHIA    FAIR      71  71 100 CALM      30.05S
CAMDEN         CLOUDY    68  64  88 CALM      30.04S
TEXARKANA      CLOUDY    71  69  93 W3        30.04S
EL DORADO      CLOUDY    70  68  93 S6        30.05F
DE QUEEN       CLOUDY    72  69  90 S3        30.02R
$$

ARZ056-057-069-271000-
SOUTHEAST ARKANSAS

CITY           SKY/WX    TMP DP  RH WIND       PRES   REMARKS
PINE BLUFF     CLOUDY    70  67  90 S8        30.05F
STUTTGART      MOCLDY    72  66  83 S13       30.04F
MONTICELLO     CLOUDY    71  67  87 S6        30.07F

$$





USA.gov is the U.S. government's official web portal to all federal, state and local government web resources and services.